Home > Weather > Cúcuta > Past weeks

Flag for Colombia Past Weather in Cúcuta, Colombia — Yesterday and Last 2 Weeks

Now
81 °F

Passing clouds.


Feels Like: 83 °F
Forecast: 72 / 102 °F
Wind: 9 mph from Southwest

Location: Cucuta / Camilo Daza

Current Time: Aug 29, 2016 at 12:50:01 AM

Latest Report: Aug 29, 2016 at 12:00 AM


Visibility: N/A

Pressure: 29.92 "Hg

Humidity: 66%

Dew Point: 68 °F

Location of CúcutaLocation

Past Weather in Cúcuta — Graph

°F

Cúcuta Temperature Yesterday

Maximum temperature yesterday: 91 °F (at 12:00 PM)
Minimum temperature yesterday: 75 °F (at 6:00 AM)
Average temperature yesterday: 83 °F

High & Low Weather Summary for the Past Weeks

 TemperatureHumidityPressure
High97 °F (Aug 17, 2:00 PM)89% (Aug 28, 6:00 AM)30.00 "Hg (Aug 28, 6:00 AM)
Low75 °F (Aug 15, 6:00 AM)28% (Aug 20, 11:00 AM)29.74 "Hg (Aug 20, 5:00 PM)
Average87 °F53%29.87 "Hg
* Reported Aug 13 11:00 PM — Aug 28 11:00 PM, Cúcuta, Weather by CustomWeather, © 2016

Note: Actual official high and low records may vary slightly from our data, if they occured in-between our weather recording intervals... More about our weather records

Advertising

Cúcuta Weather History for the Previous 24 Hours

Scroll right to see more
 ConditionsComfort  
Time TempWeatherWind HumidityBarometerVisibility
11:00 PM
Sun, Aug 28
79 °FPassing clouds.5 mph84%29.93 "HgN/A
10:00 PM81 °FPassing clouds.2 mph79%29.92 "HgN/A
9:00 PM81 °FPassing clouds.5 mph79%29.90 "HgN/A
8:00 PM82 °FPassing clouds.5 mph74%29.87 "HgN/A
7:00 PM84 °FPassing clouds.7 mph70%29.86 "HgN/A
6:00 PM86 °FPassing clouds.6 mph62%29.84 "HgN/A
5:00 PM88 °FScattered clouds.8 mph55%29.83 "HgN/A
4:00 PM90 °FHot.9 mph52%29.82 "HgN/A
3:00 PM88 °FScattered clouds.10 mph55%29.83 "HgN/A
2:00 PM90 °FScattered clouds.12 mph52%29.84 "HgN/A
1:00 PM90 °FScattered clouds.12 mph52%29.86 "HgN/A
12:00 PM91 °FScattered clouds.2 mph41%29.90 "HgN/A
11:00 AM88 °FScattered clouds.5 mph49%29.94 "HgN/A
10:00 AM86 °FScattered clouds.2 mph55%29.98 "HgN/A
9:00 AM82 °FScattered clouds.3 mph66%30.00 "HgN/A
8:00 AM77 °FFog.2 mph83%30.00 "HgN/A
7:00 AM75 °FFog.1 mph89%29.98 "Hg5 mi
6:00 AM75 °FBroken clouds.6 mph89%29.96 "HgN/A
5:00 AM79 °FPartly cloudy.2 mph70%29.94 "HgN/A
12:00 AM79 °FPartly cloudy.10 mph74%29.93 "HgN/A
Weather by CustomWeather, © 2016

See weather overviewHow to use our weather pages